Location: C�an Torras
(41.5052°N, 1.9280°E)
Time: 18:45:34
(UTC+00:00)

CZ-4 R/B - Pass Details

Date: 20 January 2021
Orbit: 531 x 599 km, 97.7° (Epoch: 03 March)

Event Time Altitude Azimuth Distance (km) Brightness Sun altitude
Rises 17:49:34 0° 144° (SE) 2,806 4.7 -10.6°
Reaches altitude 10° 17:51:53 10° 134° (SE) 1,900 3.8 -11.0°
Maximum altitude 17:55:34 32° 71° (ENE) 996 2.1 -11.6°
Drops below altitude 10° 17:59:12 10° 7° (N) 1,878 3.8 -12.3°
Sets 18:01:29 0° 358° (N) 2,767 4.8 -12.7°
